TimeEST,TemperatureF,Dew PointF,Humidity,Sea Level PressureIn,VisibilityMPH,Wind Direction,Wind SpeedMPH,Gust SpeedMPH,PrecipitationIn,Events,Conditions,WindDirDegrees,DateUTC
12:53 AM,9.0,-0.0,67,30.10,10.0,NNW,25.3,33.4,N/A,,Mostly Cloudy,340,2013-02-10 05:53:00
1:53 AM,9.0,1.0,70,30.12,10.0,NNW,18.4,25.3,N/A,,Partly Cloudy,340,2013-02-10 06:53:00
2:53 AM,8.1,-0.0,70,30.12,10.0,NNW,19.6,36.8,N/A,,Clear,340,2013-02-10 07:53:00
3:53 AM,8.1,-0.0,70,30.14,10.0,NNW,23.0,28.8,N/A,,Partly Cloudy,340,2013-02-10 08:53:00
4:53 AM,8.1,-0.9,67,30.15,10.0,NNW,20.7,31.1,N/A,,Scattered Clouds,340,2013-02-10 09:53:00
5:53 AM,7.0,-2.0,67,30.17,10.0,NNW,25.3,35.7,N/A,,Clear,340,2013-02-10 10:53:00
6:53 AM,7.0,-2.0,67,30.19,10.0,NNW,20.7,34.5,N/A,,Clear,340,2013-02-10 11:53:00
7:53 AM,8.1,-2.0,64,30.22,10.0,NNW,17.3,25.3,N/A,,Clear,330,2013-02-10 12:53:00
8:53 AM,8.1,-2.9,61,30.24,10.0,NW,17.3,24.2,N/A,,Clear,320,2013-02-10 13:53:00
9:53 AM,10.9,-2.9,54,30.26,10.0,NW,19.6,-,N/A,,Clear,310,2013-02-10 14:53:00
10:53 AM,15.1,-2.0,47,30.26,10.0,NW,23.0,27.6,N/A,,Clear,320,2013-02-10 15:53:00
11:53 AM,19.0,-0.9,42,30.25,10.0,NNW,18.4,-,N/A,,Clear,340,2013-02-10 16:53:00
12:53 PM,21.0,-2.0,36,30.24,10.0,NNW,15.0,26.5,N/A,,Clear,330,2013-02-10 17:53:00
1:53 PM,23.0,-2.9,32,30.23,10.0,NNW,13.8,19.6,N/A,,Clear,330,2013-02-10 18:53:00
2:53 PM,23.0,-2.9,32,30.24,10.0,NW,11.5,-,N/A,,Clear,320,2013-02-10 19:53:00
3:53 PM,21.9,-5.1,30,30.24,10.0,NW,11.5,17.3,N/A,,Clear,310,2013-02-10 20:53:00
4:53 PM,19.9,-7.1,30,30.25,10.0,NW,8.1,-,N/A,,Clear,310,2013-02-10 21:53:00
5:53 PM,18.0,-6.0,35,30.26,10.0,WNW,9.2,-,N/A,,Clear,300,2013-02-10 22:53:00
6:53 PM,19.0,-7.1,31,30.28,10.0,WNW,5.8,-,N/A,,Clear,290,2013-02-10 23:53:00
7:53 PM,19.0,-7.1,31,30.28,10.0,NW,5.8,-,N/A,,Clear,320,2013-02-11 00:53:00
8:53 PM,16.0,-7.1,36,30.27,10.0,Calm,Calm,-,N/A,,Clear,0,2013-02-11 01:53:00
9:53 PM,17.1,-7.1,34,30.26,10.0,Calm,Calm,-,N/A,,Clear,0,2013-02-11 02:53:00
10:53 PM,12.9,-5.1,45,30.25,10.0,WNW,4.6,-,N/A,,Clear,300,2013-02-11 03:53:00
11:53 PM,14.0,-5.1,43,30.24,10.0,NW,3.5,-,N/A,,Clear,320,2013-02-11 04:53:00